• In Hungary
  • List of Countries
  • For 7 days
  • Water Temperature
  • Satellite Maps
  • Weather Map
  • News
  • Weather Widgets
  • user-avatar
    Login

    Hourly Weather Walkowice

    Today, 22 November, Wednesday

    Time Temperature Precipitation Wind Pressure Humidity
    00:00 +1°C° 0 mm 2 mps 753 mmHg 92%
    01:00 0°C° 0 mm 3 mps 753 mmHg 92%
    02:00 +1°C° 0.1 mm 3 mps 753 mmHg 91%
    03:00 +1°C° 0.1 mm 3 mps 753 mmHg 90%
    04:00 0°C° 0.1 mm 4 mps 752 mmHg 90%
    05:00 0°C° 0.5 mm 4 mps 752 mmHg 90%
    06:00 +1°C° 0.5 mm 4 mps 751 mmHg 91%
    07:00 +1°C° 0.5 mm 4 mps 751 mmHg 92%
    08:00 +3°C° 0.9 mm 4 mps 751 mmHg 92%
    09:00 +3°C° 0.9 mm 4 mps 751 mmHg 93%
    10:00 +4°C° 0.9 mm 4 mps 751 mmHg 94%
    11:00 +4°C° 0.3 mm 4 mps 751 mmHg 93%
    12:00 +5°C° 0.3 mm 4 mps 751 mmHg 93%
    13:00 +5°C° 0.3 mm 3 mps 751 mmHg 92%
    14:00 +5°C° 0.1 mm 3 mps 751 mmHg 93%
    15:00 +7°C° 0.1 mm 3 mps 751 mmHg 93%
    16:00 +7°C° 0.1 mm 3 mps 751 mmHg 94%
    17:00 +7°C° 0 mm 3 mps 752 mmHg 94%
    18:00 +7°C° 0 mm 3 mps 752 mmHg 94%
    19:00 +7°C° 0 mm 3 mps 752 mmHg 95%
    20:00 +7°C° 0 mm 3 mps 752 mmHg 94%
    21:00 +7°C° 0 mm 3 mps 752 mmHg 94%
    22:00 +7°C° 0 mm 3 mps 753 mmHg 94%
    23:00 +7°C° 0 mm 3 mps 753 mmHg 94%

    Tomorrow, 23 November, Thursday

    Time Temperature Precipitation Wind Pressure Humidity
    00:00 +5°C° 0 mm 3 mps 753 mmHg 94%
    01:00 +5°C° 0 mm 3 mps 753 mmHg 93%
    02:00 +4°C° 0 mm 3 mps 753 mmHg 92%
    03:00 +4°C° 0 mm 3 mps 753 mmHg 91%
    04:00 +4°C° 0 mm 3 mps 752 mmHg 90%
    05:00 +4°C° 0 mm 3 mps 752 mmHg 88%
    06:00 +4°C° 0 mm 3 mps 752 mmHg 87%
    07:00 +4°C° 0 mm 4 mps 752 mmHg 85%
    08:00 +4°C° 0 mm 4 mps 752 mmHg 80%
    09:00 +5°C° 0 mm 4 mps 753 mmHg 76%
    10:00 +6°C° 0 mm 5 mps 753 mmHg 71%
    11:00 +7°C° 0 mm 5 mps 752 mmHg 67%
    12:00 +8°C° 0 mm 5 mps 752 mmHg 64%
    13:00 +9°C° 0 mm 5 mps 752 mmHg 61%
    14:00 +8°C° 0 mm 4 mps 752 mmHg 64%
    15:00 +8°C° 0 mm 4 mps 753 mmHg 67%
    16:00 +7°C° 0 mm 4 mps 753 mmHg 70%
    17:00 +7°C° 0 mm 4 mps 753 mmHg 72%
    18:00 +7°C° 0 mm 4 mps 753 mmHg 73%
    19:00 +7°C° 0 mm 4 mps 754 mmHg 74%
    20:00 +7°C° 0 mm 4 mps 754 mmHg 76%
    21:00 +7°C° 0 mm 4 mps 755 mmHg 78%
    22:00 +7°C° 0 mm 4 mps 755 mmHg 80%
    23:00 +7°C° 0 mm 4 mps 755 mmHg 82%

    Day after tomorrow, 24 November, Friday

    Time Temperature Precipitation Wind Pressure Humidity
    00:00 +7°C° 0 mm 4 mps 756 mmHg 85%
    01:00 +7°C° 0 mm 4 mps 756 mmHg 87%
    02:00 +6°C° 0 mm 4 mps 756 mmHg 89%
    03:00 +7°C° 0 mm 3 mps 757 mmHg 91%
    04:00 +7°C° 0 mm 3 mps 757 mmHg 93%
    05:00 +7°C° 0 mm 3 mps 757 mmHg 93%
    06:00 +7°C° 0 mm 3 mps 757 mmHg 93%
    07:00 +5°C° 0 mm 3 mps 757 mmHg 94%
    08:00 +6°C° 0 mm 4 mps 757 mmHg 91%
    09:00 +7°C° 0 mm 4 mps 757 mmHg 88%
    10:00 +8°C° 0 mm 4 mps 757 mmHg 85%
    11:00 +10°C° 0 mm 4 mps 757 mmHg 81%
    12:00 +9°C° 0 mm 5 mps 756 mmHg 78%
    13:00 +10°C° 0 mm 5 mps 756 mmHg 74%
    14:00 +11°C° 0 mm 4 mps 756 mmHg 77%
    15:00 +10°C° 0 mm 4 mps 756 mmHg 79%
    16:00 +10°C° 0 mm 4 mps 756 mmHg 81%
    17:00 +10°C° 0 mm 4 mps 756 mmHg 81%
    18:00 +8°C° 0 mm 4 mps 756 mmHg 81%
    19:00 +8°C° 0 mm 4 mps 756 mmHg 81%
    20:00 +8°C° 0 mm 4 mps 755 mmHg 81%
    21:00 +8°C° 0 mm 4 mps 755 mmHg 81%
    22:00 +8°C° 0 mm 4 mps 755 mmHg 81%
    23:00 +8°C° 0 mm 4 mps 755 mmHg 81%

    25 November, Saturday

    Time Temperature Precipitation Wind Pressure Humidity
    00:00 +7°C° 0 mm 4 mps 755 mmHg 81%
    01:00 +7°C° 0 mm 4 mps 755 mmHg 81%
    02:00 +7°C° 0 mm 4 mps 755 mmHg 80%
    03:00 +7°C° 0 mm 5 mps 754 mmHg 79%
    04:00 +7°C° 0 mm 5 mps 754 mmHg 77%
    05:00 +7°C° 0 mm 5 mps 754 mmHg 78%
    06:00 +7°C° 0 mm 5 mps 753 mmHg 78%
    07:00 +7°C° 0 mm 5 mps 753 mmHg 78%
    08:00 +7°C° 0 mm 5 mps 752 mmHg 76%
    09:00 +8°C° 0 mm 5 mps 752 mmHg 74%
    10:00 +8°C° 0 mm 5 mps 752 mmHg 72%
    11:00 +9°C° 0 mm 5 mps 752 mmHg 71%
    12:00 +9°C° 0 mm 5 mps 751 mmHg 69%
    13:00 +10°C° 0 mm 5 mps 751 mmHg 67%
    14:00 +9°C° 0 mm 5 mps 751 mmHg 71%
    15:00 +10°C° 0 mm 4 mps 751 mmHg 74%
    16:00 +8°C° 0 mm 4 mps 752 mmHg 78%
    17:00 +8°C° 0.4 mm 4 mps 752 mmHg 79%
    18:00 +7°C° 0.4 mm 4 mps 752 mmHg 80%
    19:00 +7°C° 0.4 mm 4 mps 753 mmHg 81%
    20:00 +7°C° 0.9 mm 4 mps 754 mmHg 80%
    21:00 +7°C° 0.9 mm 3 mps 754 mmHg 79%
    22:00 +7°C° 0.9 mm 3 mps 755 mmHg 79%
    23:00 +5°C° 0.1 mm 3 mps 755 mmHg 80%

    26 November, Sunday

    Time Temperature Precipitation Wind Pressure Humidity
    00:00 +5°C° 0.1 mm 3 mps 756 mmHg 81%
    01:00 +5°C° 0.1 mm 3 mps 756 mmHg 82%
    02:00 +4°C° 0 mm 3 mps 756 mmHg 83%
    03:00 +4°C° 0 mm 3 mps 756 mmHg 83%
    04:00 +3°C° 0 mm 3 mps 757 mmHg 84%
    05:00 +3°C° 0 mm 3 mps 757 mmHg 85%
    06:00 +2°C° 0 mm 3 mps 757 mmHg 86%
    07:00 +2°C° 0 mm 3 mps 757 mmHg 87%
    08:00 +2°C° 0 mm 3 mps 757 mmHg 83%
    09:00 +3°C° 0 mm 4 mps 757 mmHg 80%
    10:00 +3°C° 0 mm 4 mps 757 mmHg 76%
    11:00 +3°C° 0 mm 5 mps 757 mmHg 73%
    12:00 +3°C° 0 mm 5 mps 757 mmHg 70%
    13:00 +5°C° 0 mm 5 mps 757 mmHg 67%
    14:00 +4°C° 0 mm 4 mps 757 mmHg 70%
    15:00 +4°C° 0 mm 4 mps 757 mmHg 73%
    16:00 +3°C° 0 mm 4 mps 757 mmHg 77%
    17:00 +3°C° 0 mm 4 mps 756 mmHg 77%
    18:00 +1°C° 0 mm 4 mps 756 mmHg 78%
    19:00 +1°C° 0 mm 5 mps 756 mmHg 78%
    20:00 +1°C° 0 mm 5 mps 756 mmHg 78%
    21:00 +1°C° 0 mm 5 mps 756 mmHg 78%
    22:00 +1°C° 0 mm 5 mps 756 mmHg 78%
    23:00 +1°C° 0 mm 5 mps 756 mmHg 79%

    27 November, Monday

    Time Temperature Precipitation Wind Pressure Humidity
    00:00 +1°C° 0 mm 5 mps 755 mmHg 79%
    01:00 +1°C° 0 mm 5 mps 755 mmHg 80%
    02:00 +1°C° 0 mm 5 mps 755 mmHg 81%
    03:00 +1°C° 0 mm 5 mps 755 mmHg 82%
    04:00 +1°C° 0 mm 5 mps 755 mmHg 83%
    05:00 +1°C° 0 mm 5 mps 755 mmHg 83%
    06:00 +1°C° 0 mm 6 mps 755 mmHg 83%
    07:00 +1°C° 0 mm 6 mps 755 mmHg 83%
    08:00 +2°C° 0 mm 6 mps 755 mmHg 81%
    09:00 +2°C° 0 mm 6 mps 755 mmHg 79%
    10:00 +3°C° 0 mm 6 mps 755 mmHg 77%
    11:00 +3°C° 0 mm 6 mps 756 mmHg 76%
    12:00 +3°C° 0 mm 6 mps 756 mmHg 74%
    13:00 +3°C° 0 mm 6 mps 756 mmHg 73%
    14:00 +3°C° 0 mm 5 mps 756 mmHg 73%
    15:00 +3°C° 0 mm 5 mps 756 mmHg 73%
    16:00 +4°C° 0 mm 4 mps 756 mmHg 74%
    17:00 +4°C° 0 mm 4 mps 756 mmHg 75%
    18:00 +4°C° 0 mm 4 mps 756 mmHg 76%
    19:00 +3°C° 0 mm 4 mps 756 mmHg 77%
    20:00 +3°C° 0 mm 4 mps 756 mmHg 79%
    21:00 +1°C° 0 mm 4 mps 756 mmHg 81%
    22:00 +1°C° 0 mm 4 mps 756 mmHg 82%
    23:00 +1°C° 0 mm 4 mps 756 mmHg 84%
    Show more